Weather History for Wadena, MN

Change the Weather History Date:

Monday, December 31, 2012

  Actual Average Record
Temperature  
Mean Temperature -2 °F -  
Max Temperature 10 °F 14 °F 38 °F (1943)
Min Temperature -14 °F -3 °F -33 °F (1976)
Degree Days  
Heating Degree Days 67    
Moisture  
Dew Point -8 °F    
Average Humidity 79    
Maximum Humidity 92    
Minimum Humidity 66    
Precipitation  
Precipitation 0.00 in - - ()
Sea Level Pressure  
Sea Level Pressure 30.15 in    
Wind  
Wind Speed 7 mph (WNW)    
Max Wind Speed 13 mph    
Max Gust Speed 18 mph    
Visibility 10 miles    
Events Snow    
Averages and records for this station are not official NWS values.
T = Trace of Precipitation, MM = Missing Value Source: NWS Daily Summary

Daily Weather History Graph

Daily Weather History Graph

Search for Another Location

Airport:

Trip Planner

Search our weather history database for the weather conditions in past years. The results will help you decide how hot, cold, wet, or windy it might be!

Date:

Astronomy

Dec. 31, 2012 Rise Set
Actual Time 8:04 AM CST 4:43 PM CST
Civil Twilight 7:29 AM CST 5:18 PM CST
Nautical Twilight 6:51 AM CST 5:56 PM CST
Astronomical Twilight 6:14 AM CST 6:33 PM CST
Moon 8:28 PM CST (12/31) 9:34 AM CST (12/31)
Length of Visible Light 9h 49m
Length of Day
8h 39m
Waning Gibbous, 90% of the Moon is Illuminated
Dec 31
Waning Gibbous
Jan 4
Last Quarter
Jan 11
New
Jan 18
First Quarter
Jan 26
Full

Hourly Weather History & Observations

Time (CST) Temp. Windchill Dew Point Humidity Pressure Visibility Wind Dir Wind Speed Gust Speed Precip Events Conditions
12:21 AM 8.6 °F -2.6 °F 3.2 °F 79% 30.00 in 10.0 mi WNW 6.9 mph - N/A   Overcast
12:41 AM 8.6 °F -3.7 °F 5.0 °F 85% 30.01 in 10.0 mi WNW 8.1 mph - N/A   Overcast
12:48 AM 8.6 °F -4.7 °F 5.0 °F 85% 30.01 in 10.0 mi NW 9.2 mph - N/A Snow Light Snow
12:51 AM 8.6 °F -4.7 °F 5.0 °F 85% 30.00 in 10.0 mi NW 9.2 mph - N/A Snow Light Snow
1:14 AM 10.4 °F -3.3 °F 5.0 °F 79% 30.01 in 10.0 mi NW 10.4 mph - N/A Snow Light Snow
1:53 AM 10.4 °F -3.3 °F 6.8 °F 85% 30.02 in 7.0 mi WNW 10.4 mph - N/A Snow Light Snow
2:13 AM 10.4 °F -4.1 °F 5.0 °F 79% 30.03 in 10.0 mi NW 11.5 mph 18.4 mph N/A Snow Light Snow
2:34 AM 6.8 °F -9.3 °F 1.4 °F 79% 30.05 in 10.0 mi NW 12.7 mph - N/A   Mostly Cloudy
2:53 AM 5.0 °F -9.1 °F -0.4 °F 78% 30.06 in 10.0 mi NW 9.2 mph - N/A   Mostly Cloudy
3:15 AM 3.2 °F -11.3 °F -0.4 °F 85% 30.09 in 10.0 mi WNW 9.2 mph - N/A Snow Light Snow
3:35 AM 1.4 °F -11.3 °F -2.2 °F 85% 30.10 in 10.0 mi WNW 6.9 mph - N/A   Clear
3:53 AM 1.4 °F -11.3 °F -4.0 °F 78% 30.11 in 10.0 mi WNW 6.9 mph - N/A   Clear
4:15 AM -0.4 °F -15.7 °F -5.8 °F 78% 30.11 in 10.0 mi WNW 9.2 mph - N/A   Clear
4:35 AM -2.2 °F -18.0 °F -7.6 °F 78% 30.11 in 10.0 mi WNW 9.2 mph - N/A   Clear
4:53 AM -2.2 °F -18.9 °F -7.6 °F 78% 30.11 in 10.0 mi WNW 10.4 mph - N/A   Clear
5:15 AM -2.2 °F -19.9 °F -7.6 °F 78% 30.11 in 10.0 mi NW 11.5 mph - N/A   Clear
5:35 AM -2.2 °F -15.6 °F -9.4 °F 71% 30.12 in 10.0 mi WNW 6.9 mph - N/A   Clear
6:15 AM -5.8 °F -23.4 °F -9.4 °F 84% 30.13 in 10.0 mi NW 10.4 mph - N/A   Clear
6:35 AM -7.6 °F -23.4 °F -11.2 °F 84% 30.14 in 10.0 mi WNW 8.1 mph - N/A   Clear
6:52 AM -7.6 °F -24.6 °F -11.2 °F 84% 30.14 in 10.0 mi WNW 9.2 mph - N/A   Clear
7:15 AM -7.6 °F -22.1 °F -11.2 °F 84% 30.15 in 10.0 mi WNW 6.9 mph - N/A   Clear
7:35 AM -9.4 °F -24.3 °F -13.0 °F 84% 30.15 in 10.0 mi WNW 6.9 mph - N/A   Clear
7:52 AM -9.4 °F -24.3 °F -13.0 °F 84% 30.15 in 10.0 mi NW 6.9 mph - N/A   Clear
8:15 AM -9.4 °F -24.3 °F -14.8 °F 77% 30.14 in 10.0 mi NW 6.9 mph - N/A   Clear
8:35 AM -9.4 °F -22.7 °F -14.8 °F 77% 30.15 in 10.0 mi WNW 5.8 mph - N/A   Clear
8:53 AM -9.4 °F -24.3 °F -13.0 °F 84% 30.15 in 10.0 mi WNW 6.9 mph - N/A   Clear
9:15 AM -7.6 °F -20.6 °F -11.2 °F 84% 30.16 in 10.0 mi WNW 5.8 mph - N/A   Clear
9:35 AM -7.6 °F -18.8 °F -11.2 °F 84% 30.17 in 10.0 mi WNW 4.6 mph - N/A   Clear
9:52 AM -7.6 °F -20.6 °F -11.2 °F 84% 30.18 in 10.0 mi WNW 5.8 mph - N/A   Clear
10:15 AM -5.8 °F - -11.2 °F 77% 30.19 in 10.0 mi Calm Calm - N/A   Clear
10:35 AM -4.0 °F -12.4 °F -9.4 °F 78% 30.20 in 10.0 mi NW 3.5 mph - N/A   Clear
10:53 AM -2.2 °F -12.5 °F -9.4 °F 71% 30.20 in 10.0 mi NW 4.6 mph - N/A   Clear
11:14 AM -2.2 °F -10.4 °F -9.4 °F 71% 30.20 in 10.0 mi WNW 3.5 mph - N/A   Clear
11:35 AM -2.2 °F -12.5 °F -9.4 °F 71% 30.20 in 10.0 mi WNW 4.6 mph - N/A   Clear
11:53 AM -0.4 °F -8.3 °F -9.4 °F 66% 30.20 in 10.0 mi WNW 3.5 mph - N/A   Clear
12:15 PM -0.4 °F -12.0 °F -7.6 °F 72% 30.18 in 10.0 mi WNW 5.8 mph - N/A   Clear
12:35 PM -0.4 °F -10.4 °F -7.6 °F 72% 30.17 in 10.0 mi WNW 4.6 mph - N/A   Clear
12:53 PM -0.4 °F -10.4 °F -7.6 °F 72% 30.16 in 10.0 mi WNW 4.6 mph - N/A   Clear
1:15 PM 1.4 °F -9.9 °F -7.6 °F 66% 30.16 in 10.0 mi WNW 5.8 mph - N/A   Clear
1:35 PM 1.4 °F -11.3 °F -7.6 °F 66% 30.16 in 10.0 mi West 6.9 mph - N/A   Clear
1:53 PM 1.4 °F -9.9 °F -7.6 °F 66% 30.16 in 10.0 mi West 5.8 mph - N/A   Clear
2:15 PM 1.4 °F -13.5 °F -7.6 °F 66% 30.16 in 10.0 mi WNW 9.2 mph - N/A   Clear
2:35 PM 1.4 °F -11.3 °F -5.8 °F 72% 30.16 in 10.0 mi WNW 6.9 mph - N/A   Clear
2:53 PM 1.4 °F -9.9 °F -5.8 °F 72% 30.17 in 10.0 mi WNW 5.8 mph - N/A   Clear
3:15 PM 1.4 °F -9.9 °F -5.8 °F 72% 30.17 in 10.0 mi WNW 5.8 mph - N/A   Clear
3:35 PM 1.4 °F - -5.8 °F 72% 30.17 in 10.0 mi Calm Calm - N/A   Clear
3:53 PM 1.4 °F -11.3 °F -7.6 °F 66% 30.18 in 10.0 mi West 6.9 mph - N/A   Clear
4:15 PM -0.4 °F -12.0 °F -7.6 °F 72% 30.18 in 10.0 mi West 5.8 mph - N/A   Clear
4:34 PM -0.4 °F -8.3 °F -7.6 °F 72% 30.19 in 10.0 mi West 3.5 mph - N/A   Clear
4:53 PM -0.4 °F -8.3 °F -7.6 °F 72% 30.19 in 10.0 mi West 3.5 mph - N/A   Clear
5:15 PM -2.2 °F -12.5 °F -7.6 °F 78% 30.19 in 10.0 mi West 4.6 mph - N/A   Clear
5:34 PM -2.2 °F -12.5 °F -9.4 °F 71% 30.19 in 10.0 mi West 4.6 mph - N/A   Clear
5:53 PM -4.0 °F -16.3 °F -9.4 °F 78% 30.19 in 10.0 mi West 5.8 mph - N/A   Clear
5:59 PM -2.2 °F -12.5 °F -9.4 °F 71% 30.19 in 10.0 mi West 4.6 mph - N/A   Clear
6:34 PM -5.8 °F -14.5 °F -9.4 °F 84% 30.20 in 10.0 mi West 3.5 mph - N/A   Clear
6:53 PM -5.8 °F -14.5 °F -9.4 °F 84% 30.19 in 10.0 mi West 3.5 mph - N/A   Clear
7:15 PM -5.8 °F -14.5 °F -9.4 °F 84% 30.20 in 10.0 mi WNW 3.5 mph - N/A   Clear
7:35 PM -7.6 °F - -11.2 °F 84% 30.20 in 10.0 mi Calm Calm - N/A   Clear
7:53 PM -7.6 °F - -11.2 °F 84% 30.20 in 10.0 mi Calm Calm - N/A   Clear
8:15 PM -9.4 °F - -13.0 °F 84% 30.20 in 10.0 mi Calm Calm - N/A   Clear
8:35 PM -9.4 °F -18.6 °F -13.0 °F 84% 30.20 in 10.0 mi West 3.5 mph - N/A   Clear
8:52 PM -9.4 °F - -13.0 °F 84% 30.20 in 10.0 mi Calm Calm - N/A   Clear
9:15 PM -11.2 °F - -14.8 °F 84% 30.18 in 10.0 mi Calm Calm - N/A   Clear
9:35 PM -11.2 °F - -14.8 °F 84% 30.18 in 10.0 mi Calm Calm - N/A   Clear
9:53 PM -11.2 °F -23.0 °F -14.8 °F 84% 30.19 in 10.0 mi West 4.6 mph - N/A   Clear
10:15 PM -11.2 °F - -14.8 °F 84% 30.19 in 10.0 mi Calm Calm - N/A   Clear
10:35 PM -11.2 °F - -14.8 °F 84% 30.19 in 10.0 mi Calm Calm - N/A   Clear
10:53 PM -13.0 °F - -16.6 °F 84% 30.20 in 10.0 mi Calm Calm - N/A   Clear
11:15 PM -13.0 °F - -16.6 °F 84% 30.20 in 10.0 mi Calm Calm - N/A   Clear
11:35 PM -14.8 °F - -16.6 °F 92% 30.20 in 10.0 mi Calm Calm - N/A   Clear
11:53 PM -14.8 °F - -18.4 °F 84% 30.19 in 10.0 mi Calm Calm - N/A   Clear